GALAXY 5

导读

GALAXY 5(银河5号)是美国休斯飞机公司基于HS-376平台建造的地球静止轨道通信卫星,由PanAmSat运营,1992年3月14日于美国佛罗里达州卡纳维拉尔角空军基地,通过宇宙神I火箭发射升空。卫星携带24个C波段转发器,定点于东经176度,主要为北美地区提供通信服务,2005年1月完成使命正式退役。

Basic Information
目录编号:
21906
目录名称:
GALAXY 5
国际标识:
1992-013A
轨道中心:
EARTH
卫星名称:
GALAXY 5
卫星全名:
--
卫星状态:
在轨 (已飞行12512 天)
发射日期:
1992-03-14 UTC
国别 :
美国 (US)
星等 :
--
Orbit Information
数据来源 国际轨道数据 AOE轨道数据
星历时间 2026-06-16T14:09:37+0800
6小时前
查看轨道信息
2026-06-16T17:00:00+0800
3小时前
查看轨道信息
半长轴 42443.51km 42443.624km
偏心率 0.0013721 0.0013701
轨道倾角 13.476° 13.476°
近地点辐角 92.391° 91.842°
升交点赤经 18.350° 18.350°
平近点角 162.186° 205.026°
近地点 36007.136km 36007.334km
远地点 36123.61km 36123.64km
周期 1450.363分钟 1450.369分钟
每日圈数 0.992855 0.992851
Detailed Information
使用方式:
暂无
2D Orbit Map
3D Orbit Map
Orbit Altitude Analysis Chart
Orbit Inclination Analysis Chart
Orbit Comprehensive Analysis Chart
View Comprehensive Chart